This is the latest recevied weather packets stored in our database for station/object W4FXD. If no packets are shown the sender has not sent any weather packets the latest 10 day(s).
| Time | Temp. | Humidity | Pressure | Rain* | Wind** | Luminosity | Snow |
|---|---|---|---|---|---|---|---|
| 1777632958 | 8.33° C | 83% | 1014.8 hPa | 0 mm | - | 6 W/m² | - |
| 1777632655 | 8.33° C | 83% | 1014.9 hPa | 0 mm | - | 3 W/m² | - |
| 1777632351 | 8.33° C | 85% | 1014.7 hPa | 0 mm | - | 1 W/m² | - |
| 1777632049 | 8.33° C | 85% | 1014.9 hPa | 0 mm | - | 0 W/m² | - |
| 1777631746 | 8.33° C | 84% | 1014.9 hPa | 0 mm | - | 0 W/m² | - |
| 1777631443 | 8.89° C | 84% | 1015 hPa | 0 mm | - | 0 W/m² | - |
| 1777631140 | 8.89° C | 84% | 1014.9 hPa | 0 mm | - | 0 W/m² | - |
| 1777630838 | 8.89° C | 82% | 1014.7 hPa | 0 mm | - | 0 W/m² | - |
| 1777630534 | 8.89° C | 82% | 1015 hPa | 0 mm | - | 0 W/m² | - |
| 1777630230 | 8.89° C | 82% | 1014.9 hPa | 0 mm | - | 0 W/m² | - |
| 1777629929 | 8.89° C | 82% | 1015 hPa | 0 mm | - | 0 W/m² | - |
| 1777629626 | 8.89° C | 81% | 1015 hPa | 0 mm | - | 0 W/m² | - |
| 1777629322 | 8.89° C | 82% | 1015.1 hPa | 0 mm | - | 0 W/m² | - |
| 1777629018 | 8.89° C | 83% | 1015.1 hPa | 0 mm | - | 0 W/m² | - |
| 1777628715 | 8.89° C | 82% | 1014.8 hPa | 0 mm | - | 0 W/m² | - |
| 1777628411 | 8.89° C | 83% | 1014.9 hPa | 0 mm | - | 0 W/m² | - |
| 1777628108 | 8.89° C | 82% | 1015 hPa | 0 mm | - | 0 W/m² | - |
| 1777627803 | 8.89° C | 83% | 1014.9 hPa | 0 mm | - | 0 W/m² | - |
| 1777627502 | 8.89° C | 82% | 1014.9 hPa | 0 mm | - | 0 W/m² | - |
| 1777627197 | 8.89° C | 80% | 1014.7 hPa | 0 mm | - | 0 W/m² | - |
| 1777626895 | 8.89° C | 82% | 1014.9 hPa | 0 mm | - | 0 W/m² | - |
| 1777626591 | 8.33° C | 85% | 1015 hPa | 0 mm | - | 0 W/m² | - |
| 1777626285 | 8.33° C | 85% | 1015.1 hPa | 0 mm | - | 0 W/m² | - |
| 1777625985 | 8.33° C | 85% | 1015 hPa | 0 mm | - | 0 W/m² | - |
| 1777625679 | 8.33° C | 84% | 1015 hPa | 0 mm | - | 0 W/m² | - |
* Rain latest hour (hover to see other rain measurements)
** Current wind speed in m/s (hover to see current wind gust speed)